Meteo Giornale » Osservazioni meteo Romania » Timisoara
ore: 20:30 - Osservazioni Meteo Timisoara
Lat. 45° 46' N Lon. 21° 15' E Alt. 86 metri s.l.m.
32 °C
Sereno
Temp. 24 Ore
19 °C
35 °C
Sud-Est
7.4 Km/h
Dew point 12 °C
Umidità 29 %
Visibilità 10 Km
Il sole sorge alle ore 06:54
Il sole tramonta alle ore 20:15
| Data e Ora | Cielo e Fenomeni | T °C | DP °C | Um. % | Pres. hPa | Vis. km | Vento km/h | |
|---|---|---|---|---|---|---|---|---|
| Oggi h: 20:30 | Sereno | 32 | 12 | 29 | 1012 | 10 | SE 7.4 | |
| Oggi h: 20:00 | Sereno | 33 | 12 | 27 | 1012 | 10 | N 5.5 | |
| Oggi h: 19:30 | Sereno | 34 | 12 | 26 | 1012 | 10 | N 5.5 | |
| Oggi h: 19:00 | Sereno | 35 | 11 | 23 | 1012 | 10 | S/SO 7.4 | |
| Oggi h: 18:30 | Sereno | 35 | 11 | 23 | 1012 | 10 | O/SO 9.3 | |
| Oggi h: 18:00 | Sereno | 35 | 11 | 23 | 1013 | 10 | N 7.4 | |
| Oggi h: 17:30 | Sereno | 35 | 11 | 23 | 1013 | 10 | S/SO 11.1 | |
| Oggi h: 17:00 | Sereno | 35 | 11 | 23 | 1013 | 10 | S 16.7 | |
| Oggi h: 16:30 | Sereno | 35 | 12 | 24 | 1013 | 10 | N 9.3 | |
| Oggi h: 16:00 | Sereno | 34 | 12 | 26 | 1013 | 10 | N 5.5 | |
| Oggi h: 15:30 | Sereno | 35 | 11 | 23 | 1014 | 10 | S/SE 14.8 | |
| Oggi h: 15:00 | Sereno | 34 | 12 | 26 | 1014 | 10 | N 11.1 | |
| Oggi h: 14:30 | Sereno | 34 | 13 | 28 | 1014 | 10 | N 11.1 | |
| Oggi h: 14:00 | Sereno | 34 | 13 | 28 | 1014 | 10 | N 9.3 | |
| Oggi h: 13:30 | Sereno | 33 | 14 | 31 | 1015 | 10 | E 9.3 | |
| Oggi h: 13:00 | Sereno | 32 | 14 | 33 | 1015 | 10 | E/SE 11.1 | |
| Oggi h: 12:30 | Sereno | 32 | 14 | 33 | 1015 | 10 | SE 11.1 | |
| Oggi h: 12:00 | Sereno | 31 | 14 | 35 | 1015 | 10 | E/SE 13 | |
| Oggi h: 11:30 | Sereno | 30 | 15 | 40 | 1016 | 10 | SE 13 | |
| Oggi h: 11:00 | Sereno | 30 | 14 | 37 | 1016 | 10 | E 13 | |
| Oggi h: 10:30 | Sereno | 28 | 15 | 45 | 1016 | 10 | E 16.7 | |
| Oggi h: 10:00 | Sereno | 27 | 15 | 47 | 1016 | 10 | E 14.8 | |
| Oggi h: 09:30 | Sereno | 26 | 15 | 50 | 1016 | 10 | E 16.7 | |
| Oggi h: 09:00 | Sereno | 24 | 15 | 57 | 1016 | 10 | E 18.5 | |
| Oggi h: 08:30 | Sereno | 23 | 15 | 60 | 1016 | 10 | E 14.8 | |
| Oggi h: 08:00 | Sereno | 21 | 14 | 64 | 1016 | 10 | E 9.3 | |
| Oggi h: 07:30 | Sereno | 19 | 14 | 72 | 1016 | 10 | E 13 | |
| Oggi h: 07:00 | Sereno | 19 | 14 | 72 | 1016 | 10 | E 11.1 | |
| Oggi h: 06:30 | Sereno | 19 | 14 | 72 | 1016 | 10 | E 13 | |
| Oggi h: 06:00 | Sereno | 20 | 14 | 68 | 1015 | 10 | E 11.1 | |
| Oggi h: 05:30 | Sereno | 19 | 14 | 72 | 1015 | 10 | E 13 | |
| Oggi h: 05:00 | Sereno | 20 | 14 | 68 | 1016 | 10 | E 13 | |
| Oggi h: 04:30 | Sereno | 20 | 14 | 68 | 1016 | 10 | E 13 | |
| Oggi h: 04:00 | Sereno | 19 | 13 | 68 | 1016 | 10 | E 13 | |
| Oggi h: 03:30 | Sereno | 19 | 12 | 63 | 1016 | 10 | E 11.1 | |
| Oggi h: 03:00 | Sereno | 19 | 10 | 55 | 1016 | 10 | E 11.1 | |
| Oggi h: 02:30 | Sereno | 19 | 9 | 52 | 1016 | 10 | E 9.3 | |
| Oggi h: 02:00 | Sereno | 19 | 8 | 48 | 1016 | 10 | E/NE 9.3 | |
| Oggi h: 01:30 | Sereno | 20 | 8 | 45 | 1016 | 10 | N 5.5 | |
| Oggi h: 01:00 | Sereno | 20 | 7 | 42 | 1016 | 10 | E/NE 9.3 | |
| Oggi h: 00:30 | Sereno | 20 | 6 | 39 | 1016 | 10 | E/NE 7.4 | |
| Oggi h: 00:00 | Sereno | 22 | 7 | 37 | 1016 | 10 | N 5.5 | |
| Ieri h: 23:30 | Sereno | 24 | 8 | 35 | 1016 | 10 | N 3.7 | |
| Ieri h: 23:00 | Sereno | 23 | 7 | 35 | 1016 | 10 | N 3.7 | |
| Ieri h: 22:30 | Sereno | 25 | 8 | 33 | 1016 | 10 | N 3.7 | |
| Ieri h: 22:00 | Sereno | 26 | 7 | 29 | 1015 | 10 | N 3.7 | |



